Regional Weather Roundup
Issued by NWS

Home | Current Version | Previous Version | Text Only | Print | Product List | Glossary Off
Versions: 1 2 3 4 5 6 7 8 9 10 11 12 13 14 15 16 17 18 19 20 21 22 23 24 25 26 27 28 29 30 31 32 33 34 35 36 37 38 39 40 41 42 43 44 45 46 47 48 49 50

000
ASUS43 KLSX 201607
RWRMO

WEATHER SUMMARY FOR MISSOURI
NATIONAL WEATHER SERVICE SPRINGFIELD MO
1100 AM CDT SUN APR 20 2014

NOTE: "FAIR" INDICATES FEW OR NO CLOUDS BELOW 12,000 FEET WITH NO
       SIGNIFICANT WEATHER AND/OR OBSTRUCTIONS TO VISIBILITY.
       CURRENT SKY AND/OR WEATHER CONDITIONS ARE NOT AVAILABLE FOR
       CHILLICOTHE AND FARMINGTON.

MOZ001>031-035>038-043-044-053-054-201700-
...NORTHERN AND WESTERN MISSOURI...

CITY           SKY/WX    TMP DP  RH WIND       PRES   REMARKS
KANSAS CTY INT PTSUNNY   74  52  46 SW17      30.09S
KANSAS C DTWN  MOSUNNY   75  52  44 S13G24    30.09S
LEE`S SUMMIT   MOSUNNY   73  51  46 SW18      30.11S
ST JOSEPH      PTSUNNY   72  51  47 SW18      30.07R
CHILLICOTHE      N/A     73  51  46 S12       30.11S
KIRKSVILLE     SUNNY     74  49  41 SW10      30.13S

$$
MOZ066>068-077>081-088>096-101>105-201700-
...SOUTHWEST MISSOURI...

CITY           SKY/WX    TMP DP  RH WIND       PRES   REMARKS
SPRINGFIELD    SUNNY     72  51  47 S12       30.18S
JOPLIN         MOSUNNY   72  50  45 S14       30.15F

$$
MOZ032>034-039>042-045>050-055>058-069>072-201700-
...CENTRAL MISSOURI...

CITY           SKY/WX    TMP DP  RH WIND       PRES   REMARKS
COLUMBIA       SUNNY     74  51  44 S8        30.16S
JEFFERSON CITY SUNNY     73  49  42 SW7       30.16S
ROLLA          SUNNY     71  49  45 VRB6G16   30.17S
SEDALIA        MOSUNNY   72  52  49 SW12      30.15S
WHITEMAN AFB   MOSUNNY   72  46  39 SW15      30.13S
OSAGE BEACH    MOSUNNY   73  48  40 S13       30.18R

$$
MOZ051-052-059>065-201700-
...EAST CENTRAL MISSOURI...

CITY           SKY/WX    TMP DP  RH WIND       PRES   REMARKS
ST LOUIS INTL  PTSUNNY   74  41  30 S12G20    30.19F
SPIRIT OF STL  SUNNY     74  41  30 S7        30.17F
ST CHARLES     MOSUNNY   73  42  32 S16       30.18F

$$
MOZ072>076-082>087-097>100-106>115-201700-
...SOUTH CENTRAL AND SOUTHEAST MISSOURI...

CITY           SKY/WX    TMP DP  RH WIND       PRES   REMARKS
CAPE GIRARDEAU SUNNY     72  46  39 S9        30.22S
FARMINGTON     SUNNY     72  43  35 S6        30.23S
POPLAR BLUFF   MOSUNNY   72  45  37 S3        30.20F
WEST PLAINS    SUNNY     70  46  42 S9        30.21F

$$



USA.gov is the U.S. government's official web portal to all federal, state and local government web resources and services.